Change the Weather History Date:

Thursday, March 14, 2013

  Actual Average Record
Temperature  
Mean Temperature 72 °F -  
Max Temperature 77 °F 84 °F 91 °F (1999)
Min Temperature 68 °F 72 °F 59 °F (2009)
Cooling Degree Days 8    
Growing Degree Days 22 (Base 50)    
Moisture  
Dew Point 57 °F    
Average Humidity 61    
Maximum Humidity 68    
Minimum Humidity 53    
Precipitation  
Precipitation 0.00 in - - ()
Sea Level Pressure  
Sea Level Pressure 30.15 in    
Wind  
Wind Speed 10 mph ()    
Max Wind Speed 20 mph    
Max Gust Speed -    
Visibility 7.4 miles    
Events      
Averages and records for this station are not official NWS values.
T = Trace of Precipitation, MM = Missing Value Source: Averaged Metar Reports

Daily Weather History Graph

Daily Weather History Graph

Search for Another Location

Airport or City:

Trip Planner

Search our weather history database for the weather conditions in past years. The results will help you decide how hot, cold, wet, or windy it might be!

Date:

Astronomy

Mar. 14, 2013 Rise Set
Actual Time 5:56 AM CST 5:57 PM CST
Civil Twilight 5:34 AM CST 6:19 PM CST
Nautical Twilight 5:09 AM CST 6:44 PM CST
Astronomical Twilight 4:43 AM CST 7:10 PM CST
Moon 7:37 AM CST (3/14) 8:41 PM CST (3/14)
Length of Visible Light 12h 44m
Length of Day
12h 00m
Waxing Crescent, 9% of the Moon is Illuminated
Mar 14
Waxing Crescent
Mar 19
First Quarter
Mar 27
Full
Apr 2
Last Quarter
Apr 10
New

Hourly Weather History & Observations

Time (CST) Temp. Dew Point Humidity Pressure Visibility Wind Dir Wind Speed Gust Speed Precip Events Conditions
12:42 AM 69.8 °F 57.2 °F 64% 30.14 in 7.0 mi East 4.6 mph - N/A   Partly Cloudy
1:50 AM 68.0 °F 57.2 °F 68% 30.12 in 7.0 mi ESE 6.9 mph - N/A   Scattered Clouds
2:40 AM 69.8 °F 57.2 °F 64% 30.13 in 7.0 mi East 5.8 mph - N/A   Partly Cloudy
3:40 AM 69.8 °F 57.2 °F 64% 30.10 in 7.0 mi East 6.9 mph - N/A   Partly Cloudy
4:52 AM 69.8 °F 55.4 °F 60% 30.11 in 7.0 mi East 5.8 mph - N/A   Partly Cloudy
5:42 AM 69.8 °F 55.4 °F 60% 30.09 in 7.0 mi NE 11.5 mph - N/A   Mostly Cloudy
6:44 AM 69.8 °F 55.4 °F 60% 30.16 in 7.0 mi NE 11.5 mph - N/A   Mostly Cloudy
7:45 AM 71.6 °F 55.4 °F 57% 30.18 in 7.0 mi NNE 11.5 mph - N/A   Mostly Cloudy
8:46 AM 71.6 °F 55.4 °F 57% 30.22 in 8.0 mi NNE 13.8 mph - N/A   Mostly Cloudy
9:47 AM 73.4 °F 55.4 °F 53% 30.20 in 8.0 mi NNE 16.1 mph - N/A   Mostly Cloudy
10:47 AM 77.0 °F 59.0 °F 54% 30.20 in 8.0 mi North 16.1 mph - N/A   Mostly Cloudy
11:50 AM 77.0 °F 59.0 °F 54% 30.15 in 8.0 mi NNE 18.4 mph - N/A   Mostly Cloudy
12:46 PM 77.0 °F 59.0 °F 54% 30.19 in 8.0 mi NNE 16.1 mph - N/A   Mostly Cloudy
1:46 PM 77.0 °F 60.8 °F 57% 30.15 in 8.0 mi NNE 16.1 mph - N/A   Scattered Clouds
2:48 PM 73.4 °F 59.0 °F 61% 30.16 in 8.0 mi NE 19.6 mph - N/A   Scattered Clouds
3:41 PM 73.4 °F 57.2 °F 57% 30.12 in 8.0 mi NNE 16.1 mph - N/A   Scattered Clouds
4:41 PM 71.6 °F 59.0 °F 64% 30.13 in 8.0 mi NNE 16.1 mph - N/A   Scattered Clouds
5:43 PM 69.8 °F 59.0 °F 68% 30.10 in 8.0 mi NNE 13.8 mph - N/A   Mostly Cloudy
6:46 PM 69.8 °F 57.2 °F 64% 30.15 in 7.0 mi NNE 13.8 mph - N/A   Mostly Cloudy
7:40 PM 68.0 °F 57.2 °F 68% 30.17 in 7.0 mi NE 9.2 mph - N/A   Scattered Clouds
8:45 PM 68.0 °F 57.2 °F 68% 30.21 in 7.0 mi NE 13.8 mph - N/A   Scattered Clouds
9:41 PM 68.0 °F 55.4 °F 64% 30.19 in 7.0 mi NE 15.0 mph - N/A   Scattered Clouds
10:49 PM 68.0 °F 57.2 °F 68% 30.18 in 7.0 mi NE 12.7 mph - N/A   Scattered Clouds
11:42 PM 68.0 °F 55.4 °F 64% 30.14 in 7.0 mi NE 8.1 mph - N/A   Mostly Cloudy